KP4FJC Weather Reports


time (UTC)temp
C
wind
direction
speed
KPH
gust
KPH
rain 1hr
cm
rain 24hr
cm
rain mn
cm
humidity
%
barometer
mb
20260505090524 23 308 0.0 0.0 0.00 0.00 0.00 93 1017.1
20260505090022 23 308 0.0 0.0 0.00 0.00 0.00 93 1017.2
20260505085519 23 308 0.0 0.0 0.00 0.00 0.00 93 1017.3
20260505085017 23 307 1.6 1.6 0.00 0.00 0.00 93 1017.2
20260505084515 23 327 1.6 1.6 0.00 0.00 0.00 93 1017.2
20260505084013 23 311 1.6 1.6 0.00 0.00 0.00 93 1017.3
20260505083510 23 297 1.6 1.6 0.00 0.00 0.00 93 1017.0
20260505083006 23 221 3.2 3.2 0.00 0.00 0.00 92 1017.0
20260505082502 23 305 1.6 1.6 0.00 0.00 0.00 92 1017.1
20260505081959 23 329 0.0 0.0 0.00 0.00 0.00 92 1016.9
20260505081455 23 329 0.0 0.0 0.00 0.00 0.00 92 1016.8
20260505080952 23 328 0.0 0.0 0.00 0.00 0.00 91 1016.9
20260505080449 23 328 0.0 1.6 0.00 0.00 0.00 91 1016.8
20260505075944 23 328 1.6 1.6 0.00 0.00 0.00 91 1016.9
20260505075441 23 329 0.0 1.6 0.00 0.00 0.00 91 1016.9
20260505074938 23 329 0.0 0.0 0.00 0.00 0.00 91 1016.7
20260505074436 23 328 0.0 0.0 0.00 0.00 0.00 91 1016.7
20260505073933 23 307 1.6 3.2 0.00 0.00 0.00 91 1016.9
20260505073430 23 295 3.2 3.2 0.00 0.00 0.00 90 1016.9
20260505072927 24 302 3.2 3.2 0.00 0.00 0.00 89 1016.8
20260505072423 24 319 0.0 1.6 0.00 0.00 0.00 90 1016.8
20260505071920 24 322 0.0 0.0 0.00 0.00 0.00 90 1016.9
20260505071415 24 322 0.0 0.0 0.00 0.00 0.00 90 1016.8
20260505070914 24 322 0.0 0.0 0.00 0.00 0.00 90 1016.9
20260505070410 24 321 0.0 0.0 0.00 0.00 0.00 90 1016.7
20260505065906 24 305 1.6 3.2 0.00 0.00 0.00 90 1017.0
20260505065403 24 356 0.0 1.6 0.00 0.00 0.00 90 1016.8
20260505064900 23 358 0.0 1.6 0.00 0.00 0.00 90 1016.9
20260505064357 23 332 0.0 0.0 0.00 0.00 0.00 90 1017.0
20260505063855 23 332 0.0 0.0 0.00 0.00 0.00 91 1016.9
20260505063356 23 331 0.0 0.0 0.00 0.00 0.00 91 1016.9
20260505062853 23 331 0.0 1.6 0.00 0.00 0.00 91 1016.9
20260505062350 24 250 3.2 3.2 0.00 0.00 0.00 90 1017.0
20260505061847 24 262 3.2 3.2 0.00 0.00 0.00 89 1017.0
20260505061345 25 272 3.2 3.2 0.00 0.00 0.00 88 1017.1
20260505060842 25 319 1.6 1.6 0.00 0.00 0.00 88 1017.1
20260505060339 25 323 0.0 1.6 0.00 0.00 0.00 88 1017.1
20260505055835 25 323 0.0 0.0 0.00 0.00 0.00 88 1017.3
20260505055331 25 323 0.0 0.0 0.00 0.00 0.00 88 1017.3
20260505054828 25 324 0.0 0.0 0.00 0.00 0.00 88 1017.2
20260505054326 25 324 0.0 0.0 0.00 0.00 0.00 88 1017.3
20260505053824 25 322 0.0 1.6 0.00 0.00 0.00 88 1017.3
20260505053320 25 315 0.0 0.0 0.00 0.00 0.00 88 1017.4
20260505052817 25 306 1.6 1.6 0.00 0.00 0.00 88 1017.2
20260505052314 25 205 1.6 1.6 0.00 0.00 0.00 88 1017.5
20260505051811 25 258 1.6 1.6 0.00 0.00 0.00 88 1017.6
20260505051309 25 271 1.6 1.6 0.00 0.00 0.00 88 1017.5
20260505050807 25 214 1.6 3.2 0.00 0.00 0.00 87 1017.6
20260505050305 25 259 3.2 3.2 0.00 0.00 0.00 87 1017.7
20260505041735 25 245 3.2 3.2 0.00 0.00 0.00 87 1018.0
20260505041232 25 240 1.6 1.6 0.00 0.00 0.00 87 1018.3
20260505040729 25 249 1.6 3.2 0.00 0.00 0.00 86 1018.1
20260505040226 25 232 3.2 3.2 0.00 0.00 0.00 87 1018.4
20260505035723 25 218 3.2 3.2 0.00 0.00 0.00 86 1018.3
20260505035219 25 176 1.6 3.2 0.00 0.00 0.00 86 1018.2
20260505034716 25 206 3.2 3.2 0.00 0.00 0.00 86 1018.3
20260505034213 25 222 4.8 4.8 0.00 0.00 0.00 86 1018.5
20260505033709 25 208 3.2 3.2 0.00 0.00 0.00 86 1018.5
20260505033208 25 166 1.6 1.6 0.00 0.00 0.00 86 1018.7
20260505032705 25 325 1.6 1.6 0.00 0.00 0.00 86 1018.8
20260505032201 26 337 1.6 1.6 0.00 0.00 0.00 86 1018.6
20260505031658 26 40 0.0 1.6 0.00 0.00 0.00 86 1018.6
20260505031155 26 102 1.6 1.6 0.00 0.00 0.00 86 1018.4
20260505030652 26 70 1.6 1.6 0.00 0.00 0.00 86 1018.7
20260505030147 26 94 1.6 1.6 0.00 0.00 0.00 85 1018.5
20260505025644 26 76 3.2 3.2 0.00 0.00 0.00 85 1018.5
20260505025142 26 59 1.6 1.6 0.00 0.00 0.00 85 1018.5
20260505024639 26 190 1.6 3.2 0.00 0.00 0.00 85 1018.5
20260505024136 26 135 1.6 3.2 0.00 0.00 0.00 85 1018.5
20260505023634 26 79 1.6 3.2 0.00 0.00 0.00 84 1018.6
20260505023131 26 121 3.2 4.8 0.00 0.00 0.00 84 1018.7
20260505022628 26 149 1.6 1.6 0.00 0.00 0.00 84 1018.6
20260505022125 26 71 1.6 1.6 0.00 0.00 0.00 83 1018.6
20260505021622 26 30 1.6 3.2 0.00 0.00 0.00 83 1018.5
20260505021119 26 62 3.2 3.2 0.00 0.00 0.00 82 1018.5
20260505020614 27 34 1.6 1.6 0.00 0.00 0.00 82 1018.3
20260505020111 27 103 1.6 1.6 0.00 0.00 0.00 82 1018.4
20260505015608 27 91 3.2 4.8 0.00 0.00 0.00 81 1018.5
20260505015105 27 52 1.6 3.2 0.00 0.00 0.00 81 1018.4
20260505014601 27 71 1.6 1.6 0.00 0.00 0.00 81 1018.1
20260505014058 27 31 1.6 3.2 0.00 0.00 0.00 80 1018.2
20260505013555 27 29 0.0 1.6 0.00 0.00 0.00 80 1018.2
20260505013053 27 72 4.8 4.8 0.00 0.00 0.00 80 1018.1
20260505012551 27 37 4.8 4.8 0.00 0.00 0.00 79 1018.1
20260505012048 27 132 3.2 4.8 0.00 0.00 0.00 79 1018.1
20260505011543 27 68 1.6 3.2 0.00 0.00 0.00 78 1018.0
20260505011041 27 50 0.0 1.6 0.00 0.00 0.00 78 1017.9
20260505010536 27 105 4.8 8.0 0.00 0.00 0.00 78 1017.9
20260505010033 27 115 3.2 3.2 0.00 0.00 0.00 78 1017.7
20260505005529 27 105 4.8 8.0 0.00 0.00 0.00 78 1017.6
20260505005027 27 126 3.2 3.2 0.00 0.00 0.00 78 1017.5
20260505004523 27 99 3.2 3.2 0.00 0.00 0.00 78 1017.6
20260505004020 27 106 3.2 3.2 0.00 0.00 0.00 77 1017.5
20260505003517 27 57 4.8 8.0 0.00 0.00 0.00 77 1017.5
20260505003014 27 36 1.6 1.6 0.00 0.00 0.00 77 1017.4
20260505002509 27 74 1.6 3.2 0.00 0.00 0.00 76 1017.4
20260505002009 27 74 3.2 4.8 0.00 0.00 0.00 76 1017.6
20260505001506 27 25 0.0 1.6 0.00 0.00 0.00 76 1017.4
20260505001003 27 62 4.8 4.8 0.00 0.00 0.00 75 1017.4
20260505000500 27 153 1.6 3.2 0.00 0.00 0.00 75 1017.3
20260504235957 27 54 1.6 1.6 0.00 0.00 0.00 75 1017.2
20260504235454 27 50 0.0 1.6 0.00 0.00 0.00 75 1017.2
20260504234950 27 112 4.8 4.8 0.00 0.00 0.00 75 1017.2
20260504234448 28 61 1.6 1.6 0.00 0.00 0.00 75 1017.1
20260504233944 28 97 3.2 3.2 0.00 0.00 0.00 75 1017.3
20260504233440 28 20 1.6 3.2 0.00 0.00 0.00 75 1017.0
20260504232937 28 98 3.2 3.2 0.00 0.00 0.00 75 1017.5
20260504232434 28 60 6.4 8.0 0.00 0.00 0.00 75 1017.2
20260504231931 28 135 4.8 8.0 0.00 0.00 0.00 74 1017.3
20260504231427 28 95 4.8 4.8 0.00 0.00 0.00 74 1017.1
20260504230924 28 192 4.8 8.0 0.00 0.00 0.00 74 1017.0
20260504230421 28 157 4.8 11.3 0.00 0.00 0.00 73 1016.7
20260504225920 28 113 8.0 9.7 0.00 0.00 0.00 73 1016.8
20260504225416 28 126 9.7 14.5 0.00 0.00 0.00 73 1016.9
20260504224914 28 82 8.0 9.7 0.00 0.00 0.00 72 1016.4
20260504224410 28 79 1.6 3.2 0.00 0.00 0.00 71 1016.9
20260504223907 29 45 0.0 1.6 0.00 0.00 0.00 70 1016.6
20260504223403 29 180 4.8 4.8 0.00 0.00 0.00 69 1016.6
20260504222859 29 345 3.2 4.8 0.00 0.00 0.00 69 1016.4
20260504222356 29 112 6.4 9.7 0.00 0.00 0.00 69 1016.2
20260504221855 30 348 0.0 1.6 0.00 0.00 0.00 67 1016.2
20260504221351 30 108 6.4 9.7 0.00 0.00 0.00 67 1016.2
20260504220848 30 93 6.4 9.7 0.00 0.00 0.00 67 1016.0
20260504220345 30 84 4.8 4.8 0.00 0.00 0.00 67 1016.2
20260504215842 30 127 9.7 11.3 0.00 0.00 0.00 67 1016.0
20260504215338 30 164 6.4 9.7 0.00 0.00 0.00 66 1015.9
20260504214834 30 177 4.8 9.7 0.00 0.00 0.00 65 1015.5
20260504214331 30 129 12.9 17.7 0.00 0.00 0.00 65 1015.6
20260504213828 30 131 4.8 8.0 0.00 0.00 0.00 65 1015.6
20260504213324 31 105 4.8 4.8 0.00 0.00 0.00 64 1015.5
20260504212822 30 75 4.8 9.7 0.00 0.00 0.00 65 1015.4
20260504212317 30 52 4.8 8.0 0.00 0.00 0.00 64 1015.3
20260504211815 30 60 8.0 11.3 0.00 0.00 0.00 65 1015.5
20260504211311 30 131 8.0 12.9 0.00 0.00 0.00 64 1015.4
20260504210809 31 139 14.5 22.5 0.00 0.00 0.00 64 1015.6
20260504210306 31 66 3.2 4.8 0.00 0.00 0.00 62 1015.7
20260504205803 31 120 9.7 12.9 0.00 0.00 0.00 62 1015.4
20260504205301 31 134 8.0 11.3 0.00 0.00 0.00 61 1015.2
20260504204759 31 170 8.0 9.7 0.00 0.00 0.00 63 1015.2
20260504204256 31 92 8.0 12.9 0.00 0.00 0.00 63 1015.1
20260504203756 31 55 8.0 11.3 0.00 0.00 0.00 63 1015.1
20260504203252 31 175 6.4 8.0 0.00 0.00 0.00 63 1014.8
20260504202747 31 19 4.8 8.0 0.00 0.00 0.00 65 1015.0
20260504202245 31 76 6.4 11.3 0.00 0.00 0.00 65 1014.9
20260504201741 31 175 8.0 11.3 0.00 0.00 0.00 65 1014.9
20260504201239 31 29 1.6 3.2 0.00 0.00 0.00 65 1015.1
20260504200737 31 100 11.3 12.9 0.00 0.00 0.00 65 1015.0
20260504200232 32 46 6.4 8.0 0.00 0.00 0.00 63 1015.1
20260504195729 31 38 1.6 3.2 0.00 0.00 0.00 64 1015.2
20260504195225 31 176 4.8 4.8 0.00 0.00 0.00 64 1015.4
20260504194722 31 44 9.7 11.3 0.00 0.00 0.00 64 1015.1
20260504194218 31 113 11.3 14.5 0.00 0.00 0.00 63 1015.2
20260504193715 31 57 12.9 16.1 0.00 0.00 0.00 62 1015.4
20260504193212 31 33 9.7 12.9 0.00 0.00 0.00 62 1015.4
20260504192710 32 115 12.9 14.5 0.00 0.00 0.00 62 1015.1
20260504192208 31 96 6.4 9.7 0.00 0.00 0.00 64 1015.4
20260504191706 32 82 8.0 11.3 0.00 0.00 0.00 62 1015.5
20260504191203 32 184 8.0 9.7 0.00 0.00 0.00 60 1015.2
20260504190658 32 118 6.4 9.7 0.00 0.00 0.00 60 1015.6
20260504190154 32 83 16.1 20.9 0.00 0.00 0.00 60 1015.3
20260504185651 32 118 12.9 17.7 0.00 0.00 0.00 59 1015.7
20260504185147 32 68 3.2 3.2 0.00 0.00 0.00 59 1015.6
20260504184644 32 44 1.6 3.2 0.00 0.00 0.00 59 1015.6
20260504184133 32 68 11.3 16.1 0.00 0.00 0.00 55 1015.6
20260504183631 33 125 4.8 8.0 0.00 0.00 0.00 54 1015.8
20260504183128 32 188 6.4 11.3 0.00 0.00 0.00 55 1015.7
20260504182626 33 293 4.8 8.0 0.00 0.00 0.00 54 1015.8
20260504182123 32 224 16.1 17.7 0.00 0.00 0.00 54 1016.0
20260504181620 32 197 11.3 14.5 0.00 0.00 0.00 55 1015.9
20260504181118 32 156 4.8 8.0 0.00 0.00 0.00 55 1015.9
20260504180617 32 67 8.0 14.5 0.00 0.00 0.00 54 1016.0
20260504180115 32 67 8.0 11.3 0.00 0.00 0.00 55 1016.2
20260504175612 32 149 6.4 11.3 0.00 0.00 0.00 54 1016.2
20260504175109 33 169 4.8 4.8 0.00 0.00 0.00 53 1016.1
20260504174607 32 135 4.8 8.0 0.00 0.00 0.00 55 1016.3
20260504174103 32 137 6.4 9.7 0.00 0.00 0.00 55 1016.1
20260504173600 32 117 8.0 11.3 0.00 0.00 0.00 58 1016.4
20260504173058 33 100 8.0 9.7 0.00 0.00 0.00 55 1016.5
20260504172554 32 349 6.4 8.0 0.00 0.00 0.00 57 1016.6
20260504172050 32 6 6.4 9.7 0.00 0.00 0.00 57 1016.6
20260504171547 31 96 6.4 9.7 0.00 0.00 0.00 57 1016.6
20260504171044 32 271 4.8 4.8 0.00 0.00 0.00 54 1016.9
20260504170540 32 140 4.8 4.8 0.00 0.00 0.00 55 1016.8
20260504150918 31 184 3.2 4.8 0.00 0.00 0.00 62 1017.8
20260504150415 31 44 3.2 4.8 0.00 0.00 0.00 61 1018.0
20260504140841 30 232 12.9 14.5 0.00 0.00 0.00 68 1018.0
20260504140337 30 70 8.0 14.5 0.00 0.00 0.00 68 1018.1
20260504130806 28 103 4.8 8.0 0.00 0.00 0.00 74 1018.3
20260504130302 28 133 8.0 9.7 0.00 0.00 0.00 74 1018.1
20260504120226 27 103 4.8 9.7 0.00 0.00 0.00 78 1018.5
20260504110653 26 47 0.0 1.6 0.00 0.00 0.00 84 1018.4
20260504110149 26 39 1.6 1.6 0.00 0.00 0.00 83 1018.2
20260504100610 23 347 0.0 0.0 0.00 0.00 0.00 95 1017.9
20260504100108 23 322 0.0 0.0 0.00 0.00 0.00 95 1017.9